Вернуться в каталог

ONEWEB-0421

АктивенСвязьPO
NORAD 50496·PAYLOAD·🇬🇧 United Kingdom

Запущен Dec 27, 2021 с Baikonur Cosmodrome

Loading…

Ближайшие Пролёты (ближайшие 24 часа)

TLE

СвежийSource: CelesTrak SupGP

Эпоха: Sep 14, 2026, 21:00 UTC

1 50496C 21132AD  26257.87515463 -.00000252  00000+0 -63924-3 0  2578
2 50496  87.9171 317.6365 0002345  99.6126  12.2687 13.18687662    12

Отслеживайте ONEWEB-0421 в реальном времени с AllMySat

Download on the App Store